Zurück zum Katalog

ONEWEB-0613

AktivKommunikationPO
NORAD 56071·PAYLOAD·🇬🇧 United Kingdom

Gestartet Mar 26, 2023 von Satish Dhawan Space Centre

Loading…

Nächste Überflüge (nächste 24 Stunden)

TLE

AktuellSource: CelesTrak SupGP

Epoche: Sep 14, 2026, 18:46 UTC

1 56071C 23043AB  26257.78213380  .00001979  00000+0  52639-2 0  2574
2 56071  87.8984 241.3559 0002023  78.0969 318.0254 13.15547017    18

Verfolge ONEWEB-0613 in Echtzeit mit AllMySat

Download on the App Store